QPF
0.02 0.03 0.02 0.02 0.03 0.03 0.03 0.04 0.05 0.05 0.07 0.07 0.05 0.04 0.04 0.04 0.04 0.04 0.03 0.03 0.04 0.04 0.05 0.06 0.06 0.04 0.02 0.02 0.01 0.01 0.02 0.02 0.02 0.03 0.05 0.06 0.07 0.10
0.01 0.01 0.01 0.02 0.03 0.03 0.03 0.03 0.04 0.04 0.04 0.03 0.04 0.03 0.04 0.04 0.04 0.03 0.02 0.02 0.02 0.02 0.02 0.03 0.04 0.03 0.03 0.03 0.03 0.02 0.02 0.02 0.02 0.03 0.03 0.04 0.04 0.06
0.01 0.01 0.01 0.02 0.03 0.03 0.03 0.03 0.04 0.04 0.03 0.02 0.03 0.03 0.04 0.04 0.04 0.03 0.02 0.02 0.01 0.01 0.02 0.02 0.03 0.03 0.03 0.04 0.04 0.03 0.02 0.02 0.02 0.03 0.03 0.03 0.04 0.05
0.01 0.01 0.01 0.01 0.02 0.02 0.02 0.03 0.04 0.04 0.04 0.04 0.05 0.05 0.04 0.05 0.04 0.03 0.02 0.02 0.02 0.01 0.02 0.03 0.03 0.03 0.03 0.03 0.04 0.04 0.04 0.03 0.03 0.03 0.02 0.03 0.03 0.05
0.01 0.01 0.01 0.02 0.02 0.02 0.02 0.03 0.03 0.04 0.05 0.05 0.05 0.05 0.06 0.06 0.05 0.03 0.02 0.02 0.02 0.01 0.01 0.01 0.02 0.03 0.02 0.02 0.02 0.03 0.03 0.04 0.04 0.04 0.02 0.02 0.03 0.04
0.02 0.03 0.02 0.03 0.03 0.03 0.03 0.03 0.04 0.05 0.06 0.06 0.05 0.05 0.05 0.04 0.03 0.03 0.03 0.03 0.03 0.01 0.01 0.01 0.01 0.02 0.02 0.02 0.02 0.01 0.01 0.02 0.03 0.03 0.03 0.03 0.03 0.04
0.03 0.03 0.03 0.02 0.02 0.02 0.01 0.01 0.02 0.04 0.05 0.05 0.04 0.03 0.03 0.02 0.02 0.02 0.02 0.02 0.02 0.01 0.01 0.01 0.01 0.01 0.01 0.01 0.01 0.01 0.01 0.01 0.02 0.03 0.04 0.04 0.04 0.04
0.04 0.02 0.01 0.01 0.01 0.01 0.01 0.01 0.02 0.04 0.04 0.04 0.04 0.03 0.03 0.02 0.02 0.01 0.01 0.02 0.03 0.02 0.01 0.01 0.01 0.00 0.00 0.00 0.01 0.01 0.01 0.01 0.01 0.02 0.03 0.04 0.04 0.05
0.02 0.01 0.01 0.01 0.01 0.01 0.02 0.03 0.03 0.03 0.02 0.02 0.03 0.02 0.02 0.02 0.03 0.02 0.02 0.02 0.02 0.02 0.02 0.01 0.01 0.01 0.00 0.00 0.00 0.01 0.01 0.01 0.01 0.02 0.02 0.03 0.04 0.04
0.02 0.01 0.01 0.01 0.01 0.01 0.01 0.01 0.01 0.01 0.01 0.01 0.01 0.01 0.01 0.02 0.03 0.04 0.04 0.04 0.03 0.03 0.03 0.01 0.01 0.01 0.00 0.00 0.00 0.01 0.01 0.01 0.01 0.02 0.02 0.02 0.02 0.03
0.02 0.01 0.01 0.01 0.01 0.01 0.01 0.00 0.00 0.00 0.01 0.01 0.01 0.02 0.02 0.03 0.03 0.05 0.06 0.06 0.05 0.05 0.03 0.02 0.02 0.01 0.01 0.00 0.01 0.01 0.02 0.02 0.02 0.02 0.01 0.02 0.02 0.03
0.01 0.01 0.01 0.01 0.02 0.02 0.01 0.01 0.00 0.00 0.00 0.01 0.01 0.02 0.02 0.02 0.02 0.03 0.03 0.04 0.03 0.02 0.02 0.03 0.03 0.04 0.03 0.01 0.01 0.01 0.01 0.02 0.01 0.02 0.02 0.02 0.03 0.03
0.02 0.02 0.01 0.01 0.02 0.02 0.02 0.01 0.01 0.01 0.01 0.01 0.01 0.02 0.03 0.03 0.02 0.02 0.03 0.03 0.02 0.02 0.01 0.02 0.01 0.01 0.02 0.02 0.01 0.02 0.02 0.02 0.01 0.01 0.02 0.02 0.03 0.04
0.02 0.02 0.01 0.01 0.02 0.03 0.03 0.02 0.03 0.03 0.02 0.02 0.02 0.02 0.02 0.03 0.02 0.02 0.02 0.02 0.02 0.02 0.02 0.02 0.01 0.02 0.02 0.03 0.02 0.01 0.02 0.02 0.02 0.02 0.01 0.02 0.02 0.03
0.03 0.03 0.02 0.02 0.03 0.03 0.02 0.03 0.04 0.04 0.03 0.02 0.01 0.01 0.01 0.02 0.02 0.02 0.02 0.02 0.01 0.01 0.02 0.02 0.02 0.02 0.02 0.02 0.02 0.03 0.03 0.03 0.03 0.03 0.02 0.02 0.02 0.02
0.04 0.04 0.03 0.03 0.03 0.03 0.03 0.04 0.05 0.05 0.04 0.03 0.02 0.01 0.01 0.01 0.02 0.02 0.02 0.02 0.02 0.01 0.01 0.01 0.02 0.02 0.02 0.02 0.02 0.03 0.04 0.04 0.03 0.03 0.02 0.02 0.02 0.02
0.06 0.05 0.05 0.04 0.04 0.04 0.04 0.05 0.06 0.06 0.05 0.04 0.03 0.02 0.02 0.01 0.01 0.01 0.02 0.02 0.03 0.02 0.01 0.01 0.02 0.02 0.02 0.02 0.03 0.02 0.03 0.04 0.05 0.04 0.03 0.02 0.02 0.02
0.04 0.05 0.05 0.05 0.05 0.05 0.04 0.03 0.04 0.04 0.05 0.05 0.04 0.03 0.03 0.02 0.03 0.03 0.03 0.03 0.03 0.03 0.02 0.02 0.02 0.02 0.04 0.04 0.04 0.04 0.04 0.05 0.06 0.07 0.05 0.03 0.03 0.02
0.04 0.04 0.05 0.04 0.04 0.03 0.03 0.02 0.02 0.03 0.03 0.04 0.04 0.03 0.03 0.04 0.04 0.04 0.04 0.04 0.04 0.04 0.04 0.03 0.03 0.03 0.06 0.07 0.06 0.04 0.04 0.04 0.04 0.06 0.07 0.05 0.03 0.02
0.04 0.04 0.03 0.03 0.03 0.03 0.03 0.03 0.02 0.02 0.03 0.03 0.03 0.03 0.04 0.04 0.04 0.03 0.04 0.03 0.03 0.02 0.03 0.04 0.04 0.04 0.07 0.08 0.05 0.04 0.03 0.03 0.03 0.05 0.06 0.04 0.03 0.03
0.04 0.04 0.04 0.03 0.04 0.04 0.04 0.03 0.02 0.02 0.02 0.02 0.03 0.03 0.03 0.03 0.03 0.02 0.02 0.02 0.02 0.02 0.03 0.04 0.05 0.05 0.06 0.06 0.04 0.03 0.03 0.04 0.05 0.06 0.06 0.04 0.03 0.03
0.04 0.05 0.04 0.04 0.04 0.04 0.04 0.04 0.03 0.02 0.02 0.02 0.03 0.03 0.03 0.03 0.03 0.03 0.03 0.03 0.03 0.03 0.03 0.04 0.05 0.07 0.08 0.07 0.05 0.04 0.04 0.05 0.06 0.07 0.06 0.04 0.02 0.03
0.03 0.04 0.04 0.04 0.03 0.03 0.03 0.03 0.03 0.03 0.03 0.02 0.02 0.02 0.04 0.04 0.04 0.04 0.04 0.04 0.04 0.03 0.04 0.04 0.05 0.05 0.05 0.05 0.05 0.05 0.05 0.06 0.06 0.05 0.03 0.02 0.02 0.01
MSLP
1014.73 1014.78 1014.85 1014.94 1015.03 1015.08 1015.10 1015.05 1014.95 1014.80 1014.60 1014.39 1014.17 1013.96 1013.77 1013.61 1013.49 1013.41 1013.37 1013.37 1013.40 1013.47 1013.58 1013.71 1013.87 1014.04 1014.22 1014.41 1014.60 1014.79 1014.98 1015.17 1015.36 1015.54 1015.71 1015.85 1015.96 1016.04
1014.13 1014.11 1014.13 1014.16 1014.22 1014.28 1014.34 1014.37 1014.37 1014.34 1014.28 1014.19 1014.07 1013.94 1013.80 1013.65 1013.51 1013.38 1013.27 1013.18 1013.14 1013.13 1013.16 1013.24 1013.34 1013.48 1013.63 1013.81 1013.99 1014.19 1014.39 1014.60 1014.81 1015.02 1015.22 1015.40 1015.55 1015.66
1013.55 1013.48 1013.43 1013.42 1013.44 1013.50 1013.58 1013.68 1013.77 1013.86 1013.92 1013.96 1013.96 1013.92 1013.85 1013.74 1013.61 1013.46 1013.31 1013.17 1013.06 1012.98 1012.95 1012.95 1013.00 1013.08 1013.19 1013.33 1013.48 1013.65 1013.84 1014.05 1014.27 1014.49 1014.72 1014.93 1015.13 1015.29
1013.00 1012.89 1012.80 1012.75 1012.74 1012.79 1012.89 1013.03 1013.20 1013.38 1013.55 1013.70 1013.82 1013.89 1013.90 1013.85 1013.76 1013.62 1013.47 1013.30 1013.16 1013.03 1012.94 1012.90 1012.89 1012.91 1012.96 1013.04 1013.14 1013.27 1013.42 1013.60 1013.80 1014.03 1014.27 1014.52 1014.75 1014.96
1012.44 1012.32 1012.21 1012.13 1012.11 1012.15 1012.25 1012.42 1012.63 1012.87 1013.13 1013.38 1013.60 1013.77 1013.87 1013.91 1013.88 1013.79 1013.67 1013.52 1013.38 1013.24 1013.13 1013.05 1013.00 1012.97 1012.96 1012.98 1013.02 1013.08 1013.18 1013.31 1013.48 1013.69 1013.94 1014.20 1014.46 1014.70
1011.82 1011.70 1011.60 1011.51 1011.48 1011.51 1011.61 1011.78 1012.01 1012.30 1012.62 1012.94 1013.24 1013.50 1013.69 1013.82 1013.88 1013.87 1013.82 1013.73 1013.62 1013.52 1013.42 1013.34 1013.27 1013.22 1013.17 1013.13 1013.11 1013.10 1013.13 1013.21 1013.33 1013.51 1013.73 1013.99 1014.26 1014.52
1011.07 1010.98 1010.89 1010.81 1010.77 1010.79 1010.88 1011.04 1011.28 1011.58 1011.92 1012.30 1012.66 1013.00 1013.28 1013.51 1013.66 1013.76 1013.80 1013.80 1013.78 1013.74 1013.70 1013.66 1013.61 1013.56 1013.50 1013.43 1013.36 1013.30 1013.27 1013.28 1013.34 1013.47 1013.66 1013.89 1014.16 1014.42
1010.16 1010.09 1010.03 1009.96 1009.93 1009.94 1010.00 1010.15 1010.37 1010.66 1011.02 1011.42 1011.83 1012.23 1012.59 1012.91 1013.18 1013.38 1013.54 1013.66 1013.75 1013.81 1013.86 1013.90 1013.91 1013.90 1013.86 1013.79 1013.70 1013.61 1013.53 1013.49 1013.50 1013.57 1013.71 1013.90 1014.14 1014.38
1009.09 1009.05 1009.00 1008.95 1008.91 1008.91 1008.96 1009.07 1009.27 1009.55 1009.90 1010.31 1010.75 1011.20 1011.64 1012.05 1012.42 1012.74 1013.02 1013.27 1013.48 1013.67 1013.84 1013.98 1014.09 1014.15 1014.17 1014.14 1014.07 1013.97 1013.87 1013.79 1013.75 1013.77 1013.85 1014.00 1014.19 1014.39
1007.92 1007.90 1007.87 1007.82 1007.77 1007.74 1007.77 1007.85 1008.02 1008.28 1008.62 1009.03 1009.50 1010.00 1010.50 1010.99 1011.45 1011.88 1012.27 1012.64 1012.99 1013.31 1013.60 1013.87 1014.09 1014.26 1014.36 1014.40 1014.38 1014.31 1014.22 1014.13 1014.06 1014.04 1014.07 1014.16 1014.29 1014.45
1006.76 1006.74 1006.70 1006.64 1006.57 1006.52 1006.52 1006.57 1006.71 1006.95 1007.28 1007.70 1008.19 1008.72 1009.28 1009.83 1010.37 1010.89 1011.39 1011.87 1012.32 1012.76 1013.18 1013.56 1013.91 1014.19 1014.40 1014.54 1014.59 1014.58 1014.53 1014.45 1014.37 1014.32 1014.31 1014.36 1014.44 1014.55
1005.69 1005.66 1005.60 1005.51 1005.42 1005.34 1005.30 1005.33 1005.44 1005.67 1005.99 1006.42 1006.93 1007.50 1008.10 1008.70 1009.31 1009.90 1010.47 1011.03 1011.57 1012.10 1012.62 1013.11 1013.56 1013.96 1014.28 1014.52 1014.67 1014.74 1014.74 1014.69 1014.63 1014.58 1014.56 1014.57 1014.62 1014.69
1004.79 1004.72 1004.63 1004.50 1004.37 1004.26 1004.18 1004.19 1004.29 1004.50 1004.83 1005.27 1005.80 1006.40 1007.03 1007.68 1008.33 1008.96 1009.59 1010.19 1010.79 1011.39 1011.98 1012.55 1013.09 1013.58 1014.00 1014.34 1014.58 1014.73 1014.81 1014.82 1014.80 1014.77 1014.75 1014.76 1014.79 1014.85
1004.04 1003.94 1003.80 1003.63 1003.46 1003.30 1003.20 1003.18 1003.26 1003.48 1003.81 1004.27 1004.82 1005.45 1006.11 1006.79 1007.47 1008.13 1008.77 1009.40 1010.03 1010.65 1011.28 1011.90 1012.50 1013.06 1013.56 1013.98 1014.31 1014.55 1014.70 1014.78 1014.81 1014.83 1014.84 1014.86 1014.91 1014.98
1003.41 1003.26 1003.07 1002.86 1002.64 1002.45 1002.32 1002.28 1002.36 1002.57 1002.92 1003.40 1003.97 1004.62 1005.31 1006.01 1006.69 1007.36 1008.01 1008.64 1009.26 1009.89 1010.53 1011.17 1011.80 1012.40 1012.96 1013.45 1013.85 1014.16 1014.39 1014.54 1014.64 1014.71 1014.77 1014.84 1014.92 1015.03
1002.82 1002.62 1002.39 1002.14 1001.88 1001.66 1001.50 1001.45 1001.52 1001.74 1002.10 1002.59 1003.18 1003.85 1004.55 1005.25 1005.94 1006.61 1007.25 1007.86 1008.48 1009.09 1009.72 1010.36 1011.00 1011.63 1012.22 1012.75 1013.21 1013.59 1013.88 1014.09 1014.26 1014.39 1014.51 1014.64 1014.78 1014.94
1002.20 1001.97 1001.70 1001.41 1001.12 1000.87 1000.70 1000.64 1000.71 1000.93 1001.29 1001.79 1002.39 1003.06 1003.76 1004.47 1005.15 1005.81 1006.43 1007.04 1007.63 1008.23 1008.85 1009.48 1010.12 1010.76 1011.37 1011.93 1012.43 1012.85 1013.20 1013.47 1013.69 1013.88 1014.06 1014.25 1014.46 1014.68
1001.54 1001.27 1000.98 1000.66 1000.36 1000.10 999.92 999.85 999.91 1000.13 1000.49 1000.98 1001.58 1002.24 1002.93 1003.62 1004.29 1004.93 1005.54 1006.13 1006.72 1007.31 1007.91 1008.54 1009.19 1009.83 1010.46 1011.05 1011.57 1012.03 1012.41 1012.73 1013.00 1013.24 1013.46 1013.70 1013.96 1014.25
1000.88 1000.60 1000.29 999.97 999.66 999.40 999.21 999.14 999.20 999.40 999.74 1000.21 1000.78 1001.41 1002.07 1002.74 1003.38 1004.00 1004.60 1005.18 1005.76 1006.35 1006.96 1007.60 1008.26 1008.92 1009.57 1010.17 1010.72 1011.21 1011.62 1011.96 1012.26 1012.53 1012.79 1013.06 1013.36 1013.68
1000.35 1000.07 999.76 999.44 999.14 998.88 998.70 998.62 998.66 998.84 999.15 999.57 1000.08 1000.66 1001.27 1001.88 1002.49 1003.08 1003.66 1004.23 1004.82 1005.42 1006.05 1006.71 1007.39 1008.08 1008.75 1009.38 1009.95 1010.46 1010.89 1011.26 1011.57 1011.85 1012.12 1012.41 1012.71 1013.05
1000.07 999.81 999.52 999.22 998.94 998.69 998.51 998.42 998.43 998.57 998.82 999.17 999.61 1000.10 1000.63 1001.17 1001.72 1002.26 1002.81 1003.37 1003.95 1004.57 1005.22 1005.91 1006.62 1007.34 1008.04 1008.70 1009.30 1009.83 1010.28 1010.66 1010.98 1011.26 1011.53 1011.80 1012.10 1012.43
1000.18 999.94 999.67 999.41 999.14 998.91 998.73 998.62 998.60 998.68 998.85 999.11 999.44 999.82 1000.24 1000.68 1001.14 1001.62 1002.11 1002.64 1003.21 1003.83 1004.50 1005.21 1005.95 1006.69 1007.43 1008.12 1008.74 1009.29 1009.76 1010.15 1010.48 1010.76 1011.02 1011.28 1011.55 1011.85
1000.71 1000.50 1000.27 1000.04 999.80 999.58 999.40 999.26 999.20 999.20 999.28 999.42 999.62 999.87 1000.16 1000.47 1000.82 1001.20 1001.62 1002.09 1002.62 1003.22 1003.88 1004.59 1005.34 1006.10 1006.85 1007.56 1008.20 1008.77 1009.26 1009.66 1010.00 1010.29 1010.54 1010.79 1011.05 1011.33
Thickness
5722 5720 5719 5718 5717 5716 5714 5712 5708 5705 5707 5709 5710 5712 5712 5711 5711 5711 5711 5711 5710 5710 5710 5710 5710 5710 5709 5709 5709 5708 5708 5708 5708 5709 5708 5708 5708 5708
5718 5716 5715 5714 5713 5712 5710 5709 5707 5704 5702 5705 5705 5706 5706 5706 5705 5704 5705 5705 5705 5705 5705 5705 5705 5705 5704 5704 5703 5703 5703 5703 5703 5703 5703 5703 5703 5703
5713 5712 5710 5709 5708 5706 5705 5704 5702 5700 5698 5700 5700 5701 5700 5699 5699 5698 5699 5699 5699 5699 5699 5699 5699 5699 5699 5698 5697 5698 5697 5697 5698 5698 5698 5698 5698 5698
5708 5706 5705 5704 5702 5701 5699 5698 5697 5696 5694 5693 5694 5694 5694 5694 5693 5692 5693 5693 5692 5693 5693 5693 5692 5692 5692 5691 5691 5691 5692 5692 5692 5692 5692 5692 5692 5692
5703 5701 5699 5697 5696 5695 5693 5692 5691 5691 5689 5688 5688 5688 5688 5687 5686 5686 5686 5686 5686 5686 5686 5686 5685 5684 5685 5685 5685 5685 5685 5685 5686 5685 5686 5686 5685 5686
5698 5696 5694 5692 5691 5689 5688 5686 5686 5684 5683 5682 5681 5681 5681 5680 5678 5678 5678 5678 5678 5679 5679 5678 5678 5677 5678 5678 5678 5678 5678 5678 5678 5678 5679 5679 5678 5679
5692 5690 5689 5688 5687 5684 5683 5681 5680 5678 5676 5675 5675 5675 5674 5673 5671 5671 5670 5670 5670 5670 5670 5670 5670 5670 5670 5670 5670 5670 5670 5670 5671 5671 5672 5672 5672 5672
5685 5684 5682 5681 5680 5678 5677 5676 5675 5672 5670 5669 5668 5667 5668 5667 5665 5664 5662 5661 5661 5663 5661 5662 5662 5661 5662 5663 5663 5663 5663 5663 5663 5664 5664 5665 5665 5665
5678 5676 5675 5675 5672 5671 5670 5670 5668 5667 5667 5664 5663 5662 5661 5661 5658 5657 5656 5655 5654 5655 5653 5654 5654 5654 5655 5655 5655 5655 5655 5656 5656 5656 5656 5657 5658 5658
5671 5669 5667 5666 5666 5664 5663 5662 5661 5660 5660 5659 5658 5657 5656 5655 5652 5651 5649 5648 5648 5647 5646 5645 5646 5646 5648 5647 5648 5648 5648 5648 5648 5649 5649 5650 5650 5651
5664 5662 5660 5659 5659 5657 5656 5655 5654 5654 5653 5652 5652 5651 5649 5648 5646 5643 5641 5640 5640 5640 5638 5637 5639 5638 5639 5640 5640 5640 5640 5640 5641 5641 5642 5642 5643 5643
5656 5655 5654 5653 5651 5649 5648 5647 5646 5646 5645 5645 5644 5643 5642 5640 5638 5636 5635 5633 5632 5632 5632 5629 5630 5629 5630 5632 5632 5632 5632 5632 5633 5634 5635 5635 5635 5635
5648 5647 5646 5645 5643 5642 5641 5639 5639 5638 5637 5635 5634 5633 5633 5632 5630 5629 5627 5626 5624 5624 5624 5622 5621 5620 5621 5623 5624 5624 5624 5625 5625 5626 5627 5628 5628 5629
5640 5639 5638 5636 5635 5634 5633 5632 5630 5629 5627 5626 5625 5624 5623 5622 5622 5621 5620 5619 5618 5618 5617 5615 5614 5614 5614 5614 5616 5617 5616 5617 5617 5618 5619 5620 5621 5621
5632 5631 5629 5627 5626 5625 5624 5623 5622 5620 5618 5617 5616 5616 5615 5614 5613 5613 5613 5612 5612 5611 5611 5609 5608 5608 5607 5608 5609 5609 5610 5610 5611 5612 5612 5613 5613 5613
5622 5621 5619 5618 5617 5616 5615 5614 5613 5611 5609 5608 5608 5608 5607 5606 5605 5605 5605 5605 5605 5605 5604 5604 5602 5602 5602 5602 5603 5603 5603 5604 5604 5605 5605 5605 5606 5606
5613 5611 5610 5608 5607 5606 5605 5604 5604 5603 5601 5600 5599 5599 5599 5598 5598 5597 5596 5597 5597 5598 5598 5597 5596 5595 5595 5596 5596 5597 5597 5598 5598 5598 5598 5599 5600 5601
5604 5603 5602 5600 5599 5598 5596 5596 5595 5594 5593 5592 5592 5591 5591 5591 5590 5590 5589 5590 5591 5592 5591 5590 5588 5588 5588 5590 5590 5591 5592 5592 5593 5592 5593 5594 5595 5596
5596 5595 5594 5593 5592 5590 5589 5588 5587 5587 5585 5584 5584 5584 5584 5584 5583 5583 5583 5583 5584 5584 5584 5584 5583 5583 5583 5585 5588 5585 5587 5587 5586 5587 5587 5588 5590 5591
5588 5587 5586 5585 5584 5582 5581 5580 5579 5579 5578 5577 5576 5576 5576 5576 5576 5576 5577 5577 5578 5578 5578 5578 5578 5578 5579 5581 5581 5581 5581 5582 5582 5582 5582 5582 5583 5584
5581 5579 5578 5576 5575 5574 5573 5572 5571 5571 5570 5569 5569 5569 5568 5568 5568 5569 5570 5570 5570 5572 5573 5574 5575 5574 5574 5574 5574 5576 5577 5576 5578 5577 5577 5577 5578 5578
5574 5572 5570 5569 5567 5567 5566 5564 5563 5563 5562 5562 5562 5561 5561 5561 5561 5562 5563 5563 5564 5566 5568 5569 5569 5569 5569 5569 5571 5571 5571 5571 5571 5571 5571 5572 5574 5575
5567 5565 5562 5561 5560 5560 5559 5557 5556 5555 5555 5555 5554 5554 5554 5554 5555 5555 5556 5557 5558 5559 5561 5563 5564 5564 5564 5565 5565 5566 5566 5566 5565 5565 5565 5566 5567 5568